SNEZKA Weather Reports


time (UTC)temp
C
wind
direction
speed
KPH
gust
KPH
rain 1hr
cm
rain 24hr
cm
rain mn
cm
humidity
%
barometer
mb
20260901042257 5 240 72.4 90.1 0.00 0.00 0.00 99
20260901031957 5 230 61.2 0.0 0.00 0.00 0.00 99
20260901022158 6 220 75.6 96.6 0.00 0.00 0.00 99
20260901012201 7 210 53.1 83.7 0.00 0.00 0.00 93
20260901001957 7 220 38.6 72.4 0.00 0.00 0.00 99
20260831232113 7 230 46.7 75.6 0.00 0.00 0.00 93
20260831222259 8 240 57.9 0.0 0.00 0.00 0.00 87
20260831211958 8 210 38.6 75.6 0.00 0.00 0.00 87
20260831202158 8 180 38.6 69.2 0.00 0.00 0.00 93
20260831192202 10 190 35.4 57.9 0.00 0.00 0.00 93
20260831181959 8 200 29.0 64.4 0.00 0.00 0.00 93
20260831172158 10 190 29.0 61.2 0.00 0.00 0.00 93
20260831162300 10 190 22.5 41.8 0.00 0.00 0.00 99
20260831152001 10 200 41.8 83.7 0.00 0.00 0.00 99
20260831142058 10 200 29.0 57.9 0.00 0.00 0.00 99
20260831132059 10 220 35.4 69.2 0.00 0.00 0.00 93
20260831122000 10 200 46.7 95.0 0.00 0.00 0.00 99
20260831112058 10 230 19.3 41.8 0.00 0.00 0.00 99
20260831102301 10 190 22.5 38.6 0.00 0.00 0.00 99
20260831091959 10 210 22.5 38.6 0.00 0.00 0.00 99
20260831082148 11 200 32.2 49.9 0.00 0.00 0.00 93
20260831072203 11 210 29.0 49.9 0.00 0.00 0.00 93
20260831062103 10 210 22.5 46.7 0.00 0.00 0.00 99
20260831052215 10 260 14.5 35.4 0.00 0.00 0.00 87